Location: Del Amo
(33.8464°N, 118.2104°W)
Time: 18:54:54
(UTC+00:00)

Vanguard 1 Rocket - Pass Details

Date: 14 September 2024
Orbit: 650 x 4218 km, 34.3° (Epoch: 04 October)

Event Time Altitude Azimuth Distance (km) Brightness Sun altitude
Rises 18:38:33 0° 290° (WNW) 8,216 12.0 55.1°
Reaches altitude 10° 18:44:32 10° 284° (WNW) 7,359 11.9 55.8°
Maximum altitude 19:07:31 42° 224° (SW) 4,810 11.9 57.7°
Drops below altitude 10° 19:24:50 10° 160° (SSE) 5,603 12.1 58.7°
Sets 19:28:42 0° 153° (SSE) 6,191 12.1 58.8°
